owner,sensor,date,latitude,longitude,vertical_datum,sea_water_practical_salinity,qcFlag 
DISL,ioos:station:DISL:KATA:1,2015-07-01T00:00:00Z,30.2583,-88.2131,3.544,17.47,1111122 
DISL,ioos:station:DISL:KATA:1,2015-07-01T00:30:00Z,30.2583,-88.2131,3.572,17.51,1111122 
DISL,ioos:station:DISL:KATA:1,2015-07-01T01:00:00Z,30.2583,-88.2131,3.622,17.47,1111122 
DISL,ioos:station:DISL:KATA:1,2015-07-01T01:30:00Z,30.2583,-88.2131,3.657,17.5,1111122 
DISL,ioos:station:DISL:KATA:1,2015-07-01T02:00:00Z,30.2583,-88.2131,3.68,17.53,1111122 
DISL,ioos:station:DISL:KATA:1,2015-07-01T02:30:00Z,30.2583,-88.2131,3.68,17.92,1111122 
DISL,ioos:station:DISL:KATA:1,2015-07-01T03:00:00Z,30.2583,-88.2131,3.697,17.97,1111122 
DISL,ioos:station:DISL:KATA:1,2015-07-01T03:30:00Z,30.2583,-88.2131,3.731,17.65,1111122 
DISL,ioos:station:DISL:KATA:1,2015-07-01T04:00:00Z,30.2583,-88.2131,3.778,17.42,1111122 
DISL,ioos:station:DISL:KATA:1,2015-07-01T04:30:00Z,30.2583,-88.2131,3.786,17.44,1111122 
DISL,ioos:station:DISL:KATA:1,2015-07-01T05:00:00Z,30.2583,-88.2131,3.783,17.49,1111122 
DISL,ioos:station:DISL:KATA:1,2015-07-01T05:30:00Z,30.2583,-88.2131,3.752,17.47,1111122 
DISL,ioos:station:DISL:KATA:1,2015-07-01T06:00:00Z,30.2583,-88.2131,3.767,17.38,1111122 
DISL,ioos:station:DISL:KATA:1,2015-07-01T06:30:00Z,30.2583,-88.2131,3.81,17.38,1111122 
DISL,ioos:station:DISL:KATA:1,2015-07-01T07:00:00Z,30.2583,-88.2131,3.883,17.42,1111122 
DISL,ioos:station:DISL:KATA:1,2015-07-01T07:30:00Z,30.2583,-88.2131,3.912,17.5,1111122 
DISL,ioos:station:DISL:KATA:1,2015-07-01T08:00:00Z,30.2583,-88.2131,3.928,16.9,1111122 
DISL,ioos:station:DISL:KATA:1,2015-07-01T08:30:00Z,30.2583,-88.2131,3.95,17.46,1111122 
DISL,ioos:station:DISL:KATA:1,2015-07-01T09:00:00Z,30.2583,-88.2131,3.943,17.56,1111122 
DISL,ioos:station:DISL:KATA:1,2015-07-01T09:30:00Z,30.2583,-88.2131,3.897,17.56,1111122 
DISL,ioos:station:DISL:KATA:1,2015-07-01T10:00:00Z,30.2583,-88.2131,3.899,17.56,1111122 
DISL,ioos:station:DISL:KATA:1,2015-07-01T10:30:00Z,30.2583,-88.2131,3.938,17.53,1111122 
DISL,ioos:station:DISL:KATA:1,2015-07-01T11:00:00Z,30.2583,-88.2131,4.018,17.48,1111122 
DISL,ioos:station:DISL:KATA:1,2015-07-01T11:30:00Z,30.2583,-88.2131,4.092,17.57,1111122 
DISL,ioos:station:DISL:KATA:1,2015-07-01T12:00:00Z,30.2583,-88.2131,4.14,17.79,1111122 
DISL,ioos:station:DISL:KATA:1,2015-07-01T12:30:00Z,30.2583,-88.2131,4.178,18.02,1111122 
DISL,ioos:station:DISL:KATA:1,2015-07-01T13:00:00Z,30.2583,-88.2131,4.22,18.05,1111122 
DISL,ioos:station:DISL:KATA:1,2015-07-01T13:30:00Z,30.2583,-88.2131,4.239,18.62,1111122 
DISL,ioos:station:DISL:KATA:1,2015-07-01T14:00:00Z,30.2583,-88.2131,4.259,18.95,1111122 
DISL,ioos:station:DISL:KATA:1,2015-07-01T14:30:00Z,30.2583,-88.2131,4.252,19.23,1111122 
DISL,ioos:station:DISL:KATA:1,2015-07-01T15:00:00Z,30.2583,-88.2131,4.233,19.34,1111122 
DISL,ioos:station:DISL:KATA:1,2015-07-01T15:30:00Z,30.2583,-88.2131,4.209,19.49,1111122 
DISL,ioos:station:DISL:KATA:1,2015-07-01T16:00:00Z,30.2583,-88.2131,4.176,19.65,1111122 
DISL,ioos:station:DISL:KATA:1,2015-07-01T16:30:00Z,30.2583,-88.2131,4.153,19.77,1111122 
DISL,ioos:station:DISL:KATA:1,2015-07-01T17:00:00Z,30.2583,-88.2131,4.121,19.82,1111122 
DISL,ioos:station:DISL:KATA:1,2015-07-01T17:30:00Z,30.2583,-88.2131,4.092,19.81,1111122 
DISL,ioos:station:DISL:KATA:1,2015-07-01T18:00:00Z,30.2583,-88.2131,4.07,19.77,1111122 
DISL,ioos:station:DISL:KATA:1,2015-07-01T18:30:00Z,30.2583,-88.2131,4.032,19.73,1111122 
DISL,ioos:station:DISL:KATA:1,2015-07-01T19:00:00Z,30.2583,-88.2131,3.996,19.54,1111122 
DISL,ioos:station:DISL:KATA:1,2015-07-01T19:30:00Z,30.2583,-88.2131,3.95,19.52,1111122 
DISL,ioos:station:DISL:KATA:1,2015-07-01T20:00:00Z,30.2583,-88.2131,3.897,19.49,1111122 
DISL,ioos:station:DISL:KATA:1,2015-07-01T20:30:00Z,30.2583,-88.2131,3.857,19.31,1111122 
DISL,ioos:station:DISL:KATA:1,2015-07-01T21:00:00Z,30.2583,-88.2131,3.815,19.14,1111122 
DISL,ioos:station:DISL:KATA:1,2015-07-01T21:30:00Z,30.2583,-88.2131,3.776,18.91,1111122 
DISL,ioos:station:DISL:KATA:1,2015-07-01T22:00:00Z,30.2583,-88.2131,3.775,18.31,1111122 
DISL,ioos:station:DISL:KATA:1,2015-07-01T22:30:00Z,30.2583,-88.2131,3.806,18.27,1111122 
DISL,ioos:station:DISL:KATA:1,2015-07-01T23:00:00Z,30.2583,-88.2131,3.796,18.1,1111122 
DISL,ioos:station:DISL:KATA:1,2015-07-01T23:30:00Z,30.2583,-88.2131,3.739,18.03,1111122 
DISL,ioos:station:DISL:KATA:1,2015-07-02T00:00:00Z,30.2583,-88.2131,3.683,17.95,1111122 
DISL,ioos:station:DISL:KATA:1,2015-07-02T00:30:00Z,30.2583,-88.2131,3.671,17.9,1111122 
DISL,ioos:station:DISL:KATA:1,2015-07-02T01:00:00Z,30.2583,-88.2131,3.631,17.79,1111122 
DISL,ioos:station:DISL:KATA:1,2015-07-02T01:30:00Z,30.2583,-88.2131,3.621,17.79,1111122 
DISL,ioos:station:DISL:KATA:1,2015-07-02T02:00:00Z,30.2583,-88.2131,3.582,17.76,1111122 
DISL,ioos:station:DISL:KATA:1,2015-07-02T02:30:00Z,30.2583,-88.2131,3.573,17.46,1111122 
DISL,ioos:station:DISL:KATA:1,2015-07-02T03:00:00Z,30.2583,-88.2131,3.57,17.78,1111122 
DISL,ioos:station:DISL:KATA:1,2015-07-02T03:30:00Z,30.2583,-88.2131,3.61,17.82,1111122 
DISL,ioos:station:DISL:KATA:1,2015-07-02T04:00:00Z,30.2583,-88.2131,3.661,17.75,1111122 
DISL,ioos:station:DISL:KATA:1,2015-07-02T04:30:00Z,30.2583,-88.2131,3.695,17.8,1111122 
DISL,ioos:station:DISL:KATA:1,2015-07-02T05:00:00Z,30.2583,-88.2131,3.74,17.59,1111122 
DISL,ioos:station:DISL:KATA:1,2015-07-02T05:30:00Z,30.2583,-88.2131,3.779,17.82,1111122 
DISL,ioos:station:DISL:KATA:1,2015-07-02T06:00:00Z,30.2583,-88.2131,3.802,17.77,1111122 
DISL,ioos:station:DISL:KATA:1,2015-07-02T06:30:00Z,30.2583,-88.2131,3.844,17.79,1111122 
DISL,ioos:station:DISL:KATA:1,2015-07-02T07:00:00Z,30.2583,-88.2131,3.894,18.58,1111122 
DISL,ioos:station:DISL:KATA:1,2015-07-02T07:30:00Z,30.2583,-88.2131,3.944,18.78,1111122 
DISL,ioos:station:DISL:KATA:1,2015-07-02T08:00:00Z,30.2583,-88.2131,3.977,18.77,1111122 
DISL,ioos:station:DISL:KATA:1,2015-07-02T08:30:00Z,30.2583,-88.2131,4.005,18.82,1111122 
DISL,ioos:station:DISL:KATA:1,2015-07-02T09:00:00Z,30.2583,-88.2131,4.032,18.86,1111122 
DISL,ioos:station:DISL:KATA:1,2015-07-02T09:30:00Z,30.2583,-88.2131,4.039,19.01,1111122 
DISL,ioos:station:DISL:KATA:1,2015-07-02T10:00:00Z,30.2583,-88.2131,4.087,19.26,1111122 
DISL,ioos:station:DISL:KATA:1,2015-07-02T10:30:00Z,30.2583,-88.2131,4.099,19.28,1111122 
DISL,ioos:station:DISL:KATA:1,2015-07-02T11:00:00Z,30.2583,-88.2131,4.141,19.52,1111122 
DISL,ioos:station:DISL:KATA:1,2015-07-02T11:30:00Z,30.2583,-88.2131,4.174,19.8,1111122 
DISL,ioos:station:DISL:KATA:1,2015-07-02T12:00:00Z,30.2583,-88.2131,4.186,20.11,1111122 
DISL,ioos:station:DISL:KATA:1,2015-07-02T12:30:00Z,30.2583,-88.2131,4.23,20.51,1111122 
DISL,ioos:station:DISL:KATA:1,2015-07-02T13:00:00Z,30.2583,-88.2131,4.243,20.74,1111122 
DISL,ioos:station:DISL:KATA:1,2015-07-02T13:30:00Z,30.2583,-88.2131,4.253,20.98,1111122 
DISL,ioos:station:DISL:KATA:1,2015-07-02T14:00:00Z,30.2583,-88.2131,4.287,21.21,1111122 
DISL,ioos:station:DISL:KATA:1,2015-07-02T14:30:00Z,30.2583,-88.2131,4.337,21.42,1111122 
DISL,ioos:station:DISL:KATA:1,2015-07-02T15:00:00Z,30.2583,-88.2131,4.353,21.81,1111122 
DISL,ioos:station:DISL:KATA:1,2015-07-02T15:30:00Z,30.2583,-88.2131,4.358,22.02,1111122 
DISL,ioos:station:DISL:KATA:1,2015-07-02T16:00:00Z,30.2583,-88.2131,4.346,22.25,1111122 
DISL,ioos:station:DISL:KATA:1,2015-07-02T16:30:00Z,30.2583,-88.2131,4.315,22.35,1111122 
DISL,ioos:station:DISL:KATA:1,2015-07-02T17:00:00Z,30.2583,-88.2131,4.265,22.8,1111122 
DISL,ioos:station:DISL:KATA:1,2015-07-02T17:30:00Z,30.2583,-88.2131,4.22,22.87,1111122 
DISL,ioos:station:DISL:KATA:1,2015-07-02T18:00:00Z,30.2583,-88.2131,4.183,22.86,1111122 
DISL,ioos:station:DISL:KATA:1,2015-07-02T18:30:00Z,30.2583,-88.2131,4.138,22.86,1111122 
DISL,ioos:station:DISL:KATA:1,2015-07-02T19:00:00Z,30.2583,-88.2131,4.105,22.7,1111122 
DISL,ioos:station:DISL:KATA:1,2015-07-02T19:30:00Z,30.2583,-88.2131,4.081,22.54,1111122 
DISL,ioos:station:DISL:KATA:1,2015-07-02T20:00:00Z,30.2583,-88.2131,4.052,22.48,1111122 
DISL,ioos:station:DISL:KATA:1,2015-07-02T20:30:00Z,30.2583,-88.2131,3.999,22.26,1111122 
DISL,ioos:station:DISL:KATA:1,2015-07-02T21:00:00Z,30.2583,-88.2131,3.955,21.99,1111122 
DISL,ioos:station:DISL:KATA:1,2015-07-02T21:30:00Z,30.2583,-88.2131,3.893,21.67,1111122 
DISL,ioos:station:DISL:KATA:1,2015-07-02T22:00:00Z,30.2583,-88.2131,3.839,21.46,1111122 
DISL,ioos:station:DISL:KATA:1,2015-07-02T22:30:00Z,30.2583,-88.2131,3.79,21.37,1111122 
DISL,ioos:station:DISL:KATA:1,2015-07-02T23:00:00Z,30.2583,-88.2131,3.753,21.08,1111122 
DISL,ioos:station:DISL:KATA:1,2015-07-02T23:30:00Z,30.2583,-88.2131,3.721,20.93,1111122 
DISL,ioos:station:DISL:KATA:1,2015-07-03T00:00:00Z,30.2583,-88.2131,3.689,20.77,1111122 
DISL,ioos:station:DISL:KATA:1,2015-07-03T00:30:00Z,30.2583,-88.2131,3.661,20.45,1111122 
DISL,ioos:station:DISL:KATA:1,2015-07-03T01:00:00Z,30.2583,-88.2131,3.631,19.89,1111122 
DISL,ioos:station:DISL:KATA:1,2015-07-03T01:30:00Z,30.2583,-88.2131,3.607,20.06,1111122 
DISL,ioos:station:DISL:KATA:1,2015-07-03T02:00:00Z,30.2583,-88.2131,3.602,19.8,1111122 
DISL,ioos:station:DISL:KATA:1,2015-07-03T02:30:00Z,30.2583,-88.2131,3.609,19.67,1111122 
DISL,ioos:station:DISL:KATA:1,2015-07-03T03:00:00Z,30.2583,-88.2131,3.63,19.23,1111122 
DISL,ioos:station:DISL:KATA:1,2015-07-03T03:30:00Z,30.2583,-88.2131,3.662,19.04,1111122 
DISL,ioos:station:DISL:KATA:1,2015-07-03T04:00:00Z,30.2583,-88.2131,3.699,20.2,1111122 
DISL,ioos:station:DISL:KATA:1,2015-07-03T04:30:00Z,30.2583,-88.2131,3.726,20.31,1111122 
DISL,ioos:station:DISL:KATA:1,2015-07-03T05:00:00Z,30.2583,-88.2131,3.75,20.39,1111122 
DISL,ioos:station:DISL:KATA:1,2015-07-03T05:30:00Z,30.2583,-88.2131,3.783,20.35,1111122 
DISL,ioos:station:DISL:KATA:1,2015-07-03T06:00:00Z,30.2583,-88.2131,3.81,21.19,1111122 
DISL,ioos:station:DISL:KATA:1,2015-07-03T06:30:00Z,30.2583,-88.2131,3.836,21.6,1111122 
DISL,ioos:station:DISL:KATA:1,2015-07-03T07:00:00Z,30.2583,-88.2131,3.859,21.51,1111122 
DISL,ioos:station:DISL:KATA:1,2015-07-03T07:30:00Z,30.2583,-88.2131,3.884,21.47,1111122 
DISL,ioos:station:DISL:KATA:1,2015-07-03T08:00:00Z,30.2583,-88.2131,3.913,21.48,1111122 
DISL,ioos:station:DISL:KATA:1,2015-07-03T08:30:00Z,30.2583,-88.2131,3.939,21.45,1111122 
DISL,ioos:station:DISL:KATA:1,2015-07-03T09:00:00Z,30.2583,-88.2131,3.961,21.42,1111122 
DISL,ioos:station:DISL:KATA:1,2015-07-03T09:30:00Z,30.2583,-88.2131,3.975,21.43,1111122 
DISL,ioos:station:DISL:KATA:1,2015-07-03T10:00:00Z,30.2583,-88.2131,3.987,21.32,1111122 
DISL,ioos:station:DISL:KATA:1,2015-07-03T10:30:00Z,30.2583,-88.2131,4.009,21.31,1111122 
DISL,ioos:station:DISL:KATA:1,2015-07-03T11:00:00Z,30.2583,-88.2131,4.037,21.32,1111122 
DISL,ioos:station:DISL:KATA:1,2015-07-03T11:30:00Z,30.2583,-88.2131,4.062,21.41,1111122 
DISL,ioos:station:DISL:KATA:1,2015-07-03T12:00:00Z,30.2583,-88.2131,4.101,21.51,1111122 
DISL,ioos:station:DISL:KATA:1,2015-07-03T12:30:00Z,30.2583,-88.2131,4.142,21.54,1111122 
DISL,ioos:station:DISL:KATA:1,2015-07-03T13:00:00Z,30.2583,-88.2131,4.173,21.65,1111122 
DISL,ioos:station:DISL:KATA:1,2015-07-03T13:30:00Z,30.2583,-88.2131,4.211,21.8,1111122 
DISL,ioos:station:DISL:KATA:1,2015-07-03T14:00:00Z,30.2583,-88.2131,4.255,21.96,1111122 
DISL,ioos:station:DISL:KATA:1,2015-07-03T14:30:00Z,30.2583,-88.2131,4.284,22.15,1111122 
DISL,ioos:station:DISL:KATA:1,2015-07-03T15:00:00Z,30.2583,-88.2131,4.314,22.39,1111122 
DISL,ioos:station:DISL:KATA:1,2015-07-03T15:30:00Z,30.2583,-88.2131,4.328,22.4,1111122 
DISL,ioos:station:DISL:KATA:1,2015-07-03T16:00:00Z,30.2583,-88.2131,4.326,22.45,1111122 
DISL,ioos:station:DISL:KATA:1,2015-07-03T16:30:00Z,30.2583,-88.2131,4.302,22.46,1111122 
DISL,ioos:station:DISL:KATA:1,2015-07-03T17:00:00Z,30.2583,-88.2131,4.277,22.41,1111122 
DISL,ioos:station:DISL:KATA:1,2015-07-03T17:30:00Z,30.2583,-88.2131,4.238,22.44,1111122 
DISL,ioos:station:DISL:KATA:1,2015-07-03T18:00:00Z,30.2583,-88.2131,4.221,22.43,1111122 
DISL,ioos:station:DISL:KATA:1,2015-07-03T18:30:00Z,30.2583,-88.2131,4.196,22.44,1111122 
DISL,ioos:station:DISL:KATA:1,2015-07-03T19:00:00Z,30.2583,-88.2131,4.171,22.42,1111122 
DISL,ioos:station:DISL:KATA:1,2015-07-03T19:30:00Z,30.2583,-88.2131,4.146,22.46,1111122 
DISL,ioos:station:DISL:KATA:1,2015-07-03T20:00:00Z,30.2583,-88.2131,4.118,22.43,1111122 
DISL,ioos:station:DISL:KATA:1,2015-07-03T20:30:00Z,30.2583,-88.2131,4.082,22.4,1111122 
DISL,ioos:station:DISL:KATA:1,2015-07-03T21:00:00Z,30.2583,-88.2131,4.046,22.43,1111122 
DISL,ioos:station:DISL:KATA:1,2015-07-03T21:30:00Z,30.2583,-88.2131,3.999,22.37,1111122 
DISL,ioos:station:DISL:KATA:1,2015-07-03T22:00:00Z,30.2583,-88.2131,3.938,22.3,1111122 
DISL,ioos:station:DISL:KATA:1,2015-07-03T22:30:00Z,30.2583,-88.2131,3.888,22.18,1111122 
DISL,ioos:station:DISL:KATA:1,2015-07-03T23:00:00Z,30.2583,-88.2131,3.847,22.05,1111122 
DISL,ioos:station:DISL:KATA:1,2015-07-03T23:30:00Z,30.2583,-88.2131,3.798,22.1,1111122 
DISL,ioos:station:DISL:KATA:1,2015-07-04T00:00:00Z,30.2583,-88.2131,3.764,21.98,1111122 
DISL,ioos:station:DISL:KATA:1,2015-07-04T00:30:00Z,30.2583,-88.2131,3.738,21.84,1111122 
DISL,ioos:station:DISL:KATA:1,2015-07-04T01:00:00Z,30.2583,-88.2131,3.726,21.7,1111122 
DISL,ioos:station:DISL:KATA:1,2015-07-04T01:30:00Z,30.2583,-88.2131,3.722,21.46,1111122 
DISL,ioos:station:DISL:KATA:1,2015-07-04T02:00:00Z,30.2583,-88.2131,3.722,20.9,1111122 
DISL,ioos:station:DISL:KATA:1,2015-07-04T02:30:00Z,30.2583,-88.2131,3.73,20.87,1111122 
DISL,ioos:station:DISL:KATA:1,2015-07-04T03:00:00Z,30.2583,-88.2131,3.737,21.1,1111122 
DISL,ioos:station:DISL:KATA:1,2015-07-04T03:30:00Z,30.2583,-88.2131,3.747,21.23,1111122 
DISL,ioos:station:DISL:KATA:1,2015-07-04T04:00:00Z,30.2583,-88.2131,3.76,21.0,1111122 
DISL,ioos:station:DISL:KATA:1,2015-07-04T04:30:00Z,30.2583,-88.2131,3.775,21.26,1111122 
DISL,ioos:station:DISL:KATA:1,2015-07-04T05:00:00Z,30.2583,-88.2131,3.792,20.95,1111122 
DISL,ioos:station:DISL:KATA:1,2015-07-04T05:30:00Z,30.2583,-88.2131,3.805,21.08,1111122 
DISL,ioos:station:DISL:KATA:1,2015-07-04T06:00:00Z,30.2583,-88.2131,3.814,21.45,1111122 
DISL,ioos:station:DISL:KATA:1,2015-07-04T06:30:00Z,30.2583,-88.2131,3.834,21.22,1111122 
DISL,ioos:station:DISL:KATA:1,2015-07-04T07:00:00Z,30.2583,-88.2131,3.853,21.26,1111122 
DISL,ioos:station:DISL:KATA:1,2015-07-04T07:30:00Z,30.2583,-88.2131,3.879,20.72,1111122 
DISL,ioos:station:DISL:KATA:1,2015-07-04T08:00:00Z,30.2583,-88.2131,3.902,21.44,1111122 
DISL,ioos:station:DISL:KATA:1,2015-07-04T08:30:00Z,30.2583,-88.2131,3.935,21.5,1111122 
DISL,ioos:station:DISL:KATA:1,2015-07-04T09:00:00Z,30.2583,-88.2131,3.965,21.57,1111122 
DISL,ioos:station:DISL:KATA:1,2015-07-04T09:30:00Z,30.2583,-88.2131,3.986,21.39,1111122 
DISL,ioos:station:DISL:KATA:1,2015-07-04T10:00:00Z,30.2583,-88.2131,4.021,21.49,1111122 
DISL,ioos:station:DISL:KATA:1,2015-07-04T10:30:00Z,30.2583,-88.2131,4.034,21.69,1111122 
DISL,ioos:station:DISL:KATA:1,2015-07-04T11:00:00Z,30.2583,-88.2131,4.049,21.97,1111122 
DISL,ioos:station:DISL:KATA:1,2015-07-04T11:30:00Z,30.2583,-88.2131,4.068,21.99,1111122 
DISL,ioos:station:DISL:KATA:1,2015-07-04T12:00:00Z,30.2583,-88.2131,4.087,21.97,1111122 
DISL,ioos:station:DISL:KATA:1,2015-07-04T12:30:00Z,30.2583,-88.2131,4.096,21.52,1111122 
DISL,ioos:station:DISL:KATA:1,2015-07-04T13:00:00Z,30.2583,-88.2131,4.107,21.54,1111122 
DISL,ioos:station:DISL:KATA:1,2015-07-04T13:30:00Z,30.2583,-88.2131,4.135,21.71,1111122 
DISL,ioos:station:DISL:KATA:1,2015-07-04T14:00:00Z,30.2583,-88.2131,4.157,21.88,1111122 
DISL,ioos:station:DISL:KATA:1,2015-07-04T14:30:00Z,30.2583,-88.2131,4.188,21.87,1111122 
DISL,ioos:station:DISL:KATA:1,2015-07-04T15:00:00Z,30.2583,-88.2131,4.219,21.99,1111122 
DISL,ioos:station:DISL:KATA:1,2015-07-04T15:30:00Z,30.2583,-88.2131,4.238,22.08,1111122 
DISL,ioos:station:DISL:KATA:1,2015-07-04T16:00:00Z,30.2583,-88.2131,4.258,22.03,1111122 
DISL,ioos:station:DISL:KATA:1,2015-07-04T16:30:00Z,30.2583,-88.2131,4.265,22.25,1111122 
DISL,ioos:station:DISL:KATA:1,2015-07-04T17:00:00Z,30.2583,-88.2131,4.249,22.31,1111122 
DISL,ioos:station:DISL:KATA:1,2015-07-04T17:30:00Z,30.2583,-88.2131,4.23,22.36,1111122 
DISL,ioos:station:DISL:KATA:1,2015-07-04T18:00:00Z,30.2583,-88.2131,4.205,22.36,1111122 
DISL,ioos:station:DISL:KATA:1,2015-07-04T18:30:00Z,30.2583,-88.2131,4.179,22.49,1111122 
DISL,ioos:station:DISL:KATA:1,2015-07-04T19:00:00Z,30.2583,-88.2131,4.162,22.44,1111122 
DISL,ioos:station:DISL:KATA:1,2015-07-04T19:30:00Z,30.2583,-88.2131,4.15,22.44,1111122 
DISL,ioos:station:DISL:KATA:1,2015-07-04T20:00:00Z,30.2583,-88.2131,4.129,22.34,1111122 
DISL,ioos:station:DISL:KATA:1,2015-07-04T20:30:00Z,30.2583,-88.2131,4.108,22.42,1111122 
DISL,ioos:station:DISL:KATA:1,2015-07-04T21:00:00Z,30.2583,-88.2131,4.084,22.78,1111122 
DISL,ioos:station:DISL:KATA:1,2015-07-04T21:30:00Z,30.2583,-88.2131,4.061,22.87,1111122 
DISL,ioos:station:DISL:KATA:1,2015-07-04T22:00:00Z,30.2583,-88.2131,4.021,22.88,1111122 
DISL,ioos:station:DISL:KATA:1,2015-07-04T22:30:00Z,30.2583,-88.2131,3.971,22.73,1111122 
DISL,ioos:station:DISL:KATA:1,2015-07-04T23:00:00Z,30.2583,-88.2131,3.922,22.5,1111122 
DISL,ioos:station:DISL:KATA:1,2015-07-04T23:30:00Z,30.2583,-88.2131,3.877,22.41,1111122 
DISL,ioos:station:DISL:KATA:1,2015-07-05T00:00:00Z,30.2583,-88.2131,3.952,22.51,1111122 
DISL,ioos:station:DISL:KATA:1,2015-07-05T00:30:00Z,30.2583,-88.2131,3.772,22.35,1111122 
DISL,ioos:station:DISL:KATA:1,2015-07-05T01:00:00Z,30.2583,-88.2131,3.727,21.65,1111122 
DISL,ioos:station:DISL:KATA:1,2015-07-05T01:30:00Z,30.2583,-88.2131,3.677,21.44,1111122 
DISL,ioos:station:DISL:KATA:1,2015-07-05T02:00:00Z,30.2583,-88.2131,3.624,20.94,1111122 
DISL,ioos:station:DISL:KATA:1,2015-07-05T02:30:00Z,30.2583,-88.2131,3.612,21.64,1111122 
DISL,ioos:station:DISL:KATA:1,2015-07-05T03:00:00Z,30.2583,-88.2131,3.622,21.8,1111122 
DISL,ioos:station:DISL:KATA:1,2015-07-05T03:30:00Z,30.2583,-88.2131,3.61,21.5,1111122 
DISL,ioos:station:DISL:KATA:1,2015-07-05T04:00:00Z,30.2583,-88.2131,3.633,21.89,1111122 
DISL,ioos:station:DISL:KATA:1,2015-07-05T04:30:00Z,30.2583,-88.2131,3.689,21.55,1111122 
DISL,ioos:station:DISL:KATA:1,2015-07-05T05:00:00Z,30.2583,-88.2131,3.745,21.73,1111122 
DISL,ioos:station:DISL:KATA:1,2015-07-05T05:30:00Z,30.2583,-88.2131,3.788,21.92,1111122 
DISL,ioos:station:DISL:KATA:1,2015-07-05T06:00:00Z,30.2583,-88.2131,3.83,21.57,1111122 
DISL,ioos:station:DISL:KATA:1,2015-07-05T06:30:00Z,30.2583,-88.2131,3.839,21.79,1111122 
DISL,ioos:station:DISL:KATA:1,2015-07-05T07:00:00Z,30.2583,-88.2131,3.843,21.46,1111122 
DISL,ioos:station:DISL:KATA:1,2015-07-05T07:30:00Z,30.2583,-88.2131,3.858,21.4,1111122 
DISL,ioos:station:DISL:KATA:1,2015-07-05T08:00:00Z,30.2583,-88.2131,3.871,21.43,1111122 
DISL,ioos:station:DISL:KATA:1,2015-07-05T08:30:00Z,30.2583,-88.2131,3.896,21.49,1111122 
DISL,ioos:station:DISL:KATA:1,2015-07-05T09:00:00Z,30.2583,-88.2131,3.929,21.85,1111122 
DISL,ioos:station:DISL:KATA:1,2015-07-05T09:30:00Z,30.2583,-88.2131,3.961,21.83,1111122 
DISL,ioos:station:DISL:KATA:1,2015-07-05T10:00:00Z,30.2583,-88.2131,3.986,22.08,1111122 
DISL,ioos:station:DISL:KATA:1,2015-07-05T10:30:00Z,30.2583,-88.2131,4.012,22.18,1111122 
DISL,ioos:station:DISL:KATA:1,2015-07-05T11:00:00Z,30.2583,-88.2131,4.006,22.17,1111122 
DISL,ioos:station:DISL:KATA:1,2015-07-05T11:30:00Z,30.2583,-88.2131,4.008,22.36,1111122 
DISL,ioos:station:DISL:KATA:1,2015-07-05T12:00:00Z,30.2583,-88.2131,4.022,22.34,1111122 
DISL,ioos:station:DISL:KATA:1,2015-07-05T12:30:00Z,30.2583,-88.2131,4.017,22.36,1111122 
DISL,ioos:station:DISL:KATA:1,2015-07-05T13:00:00Z,30.2583,-88.2131,4.054,22.39,1111122 
DISL,ioos:station:DISL:KATA:1,2015-07-05T13:30:00Z,30.2583,-88.2131,4.07,22.35,1111122 
DISL,ioos:station:DISL:KATA:1,2015-07-05T14:00:00Z,30.2583,-88.2131,4.065,22.38,1111122 
DISL,ioos:station:DISL:KATA:1,2015-07-05T14:30:00Z,30.2583,-88.2131,4.123,22.46,1111122 
DISL,ioos:station:DISL:KATA:1,2015-07-05T15:00:00Z,30.2583,-88.2131,4.146,22.41,1111122 
DISL,ioos:station:DISL:KATA:1,2015-07-05T15:30:00Z,30.2583,-88.2131,4.162,22.42,1111122 
DISL,ioos:station:DISL:KATA:1,2015-07-05T16:00:00Z,30.2583,-88.2131,4.183,22.42,1111122 
DISL,ioos:station:DISL:KATA:1,2015-07-05T16:30:00Z,30.2583,-88.2131,4.209,22.42,1111122 
DISL,ioos:station:DISL:KATA:1,2015-07-05T17:00:00Z,30.2583,-88.2131,4.247,22.42,1111122 
DISL,ioos:station:DISL:KATA:1,2015-07-05T17:30:00Z,30.2583,-88.2131,4.286,22.44,1111122 
DISL,ioos:station:DISL:KATA:1,2015-07-05T18:00:00Z,30.2583,-88.2131,4.286,22.44,1111122 
DISL,ioos:station:DISL:KATA:1,2015-07-05T18:30:00Z,30.2583,-88.2131,4.183,22.49,1111122 
DISL,ioos:station:DISL:KATA:1,2015-07-05T19:00:00Z,30.2583,-88.2131,4.147,22.48,1111122 
DISL,ioos:station:DISL:KATA:1,2015-07-05T19:30:00Z,30.2583,-88.2131,4.124,22.34,1111122 
DISL,ioos:station:DISL:KATA:1,2015-07-05T20:00:00Z,30.2583,-88.2131,4.063,22.41,1111122 
DISL,ioos:station:DISL:KATA:1,2015-07-05T20:30:00Z,30.2583,-88.2131,4.043,22.4,1111122 
DISL,ioos:station:DISL:KATA:1,2015-07-05T21:00:00Z,30.2583,-88.2131,4.047,22.4,1111122 
DISL,ioos:station:DISL:KATA:1,2015-07-05T21:30:00Z,30.2583,-88.2131,4.087,21.35,1111122 
DISL,ioos:station:DISL:KATA:1,2015-07-05T22:00:00Z,30.2583,-88.2131,4.097,22.3,1111122 
DISL,ioos:station:DISL:KATA:1,2015-07-05T22:30:00Z,30.2583,-88.2131,4.007,21.39,1111122 
DISL,ioos:station:DISL:KATA:1,2015-07-05T23:00:00Z,30.2583,-88.2131,3.929,22.25,1111122 
DISL,ioos:station:DISL:KATA:1,2015-07-05T23:30:00Z,30.2583,-88.2131,3.828,22.27,1111122 
DISL,ioos:station:DISL:KATA:1,2015-07-06T00:00:00Z,30.2583,-88.2131,3.76,22.44,1111122 
DISL,ioos:station:DISL:KATA:1,2015-07-06T00:30:00Z,30.2583,-88.2131,3.733,22.32,1111122 
DISL,ioos:station:DISL:KATA:1,2015-07-06T01:00:00Z,30.2583,-88.2131,3.71,21.42,1111122 
DISL,ioos:station:DISL:KATA:1,2015-07-06T01:30:00Z,30.2583,-88.2131,3.723,21.39,1111122 
DISL,ioos:station:DISL:KATA:1,2015-07-06T02:00:00Z,30.2583,-88.2131,3.817,22.34,1111122 
DISL,ioos:station:DISL:KATA:1,2015-07-06T02:30:00Z,30.2583,-88.2131,3.662,22.41,1111122 
DISL,ioos:station:DISL:KATA:1,2015-07-06T03:00:00Z,30.2583,-88.2131,3.837,22.15,1111122 
DISL,ioos:station:DISL:KATA:1,2015-07-06T03:30:00Z,30.2583,-88.2131,3.897,22.13,1111122 
DISL,ioos:station:DISL:KATA:1,2015-07-06T04:00:00Z,30.2583,-88.2131,3.846,21.97,1111122 
DISL,ioos:station:DISL:KATA:1,2015-07-06T04:30:00Z,30.2583,-88.2131,3.784,21.99,1111122 
DISL,ioos:station:DISL:KATA:1,2015-07-06T05:00:00Z,30.2583,-88.2131,3.748,21.45,1111122 
DISL,ioos:station:DISL:KATA:1,2015-07-06T05:30:00Z,30.2583,-88.2131,3.665,21.8,1111122 
DISL,ioos:station:DISL:KATA:1,2015-07-06T06:00:00Z,30.2583,-88.2131,3.699,22.16,1111122 
DISL,ioos:station:DISL:KATA:1,2015-07-06T06:30:00Z,30.2583,-88.2131,3.801,22.09,1111122 
DISL,ioos:station:DISL:KATA:1,2015-07-06T07:00:00Z,30.2583,-88.2131,3.858,22.37,1111122 
DISL,ioos:station:DISL:KATA:1,2015-07-06T07:30:00Z,30.2583,-88.2131,3.91,22.36,1111122 
DISL,ioos:station:DISL:KATA:1,2015-07-06T08:00:00Z,30.2583,-88.2131,3.966,21.97,1111122 
DISL,ioos:station:DISL:KATA:1,2015-07-06T08:30:00Z,30.2583,-88.2131,3.965,21.95,1111122 
DISL,ioos:station:DISL:KATA:1,2015-07-06T09:00:00Z,30.2583,-88.2131,3.952,21.95,1111122 
DISL,ioos:station:DISL:KATA:1,2015-07-06T09:30:00Z,30.2583,-88.2131,3.917,21.98,1111122 
DISL,ioos:station:DISL:KATA:1,2015-07-06T10:00:00Z,30.2583,-88.2131,3.879,21.93,1111122 
DISL,ioos:station:DISL:KATA:1,2015-07-06T10:30:00Z,30.2583,-88.2131,3.839,22.1,1111122 
DISL,ioos:station:DISL:KATA:1,2015-07-06T11:00:00Z,30.2583,-88.2131,3.836,22.44,1111122 
DISL,ioos:station:DISL:KATA:1,2015-07-06T11:30:00Z,30.2583,-88.2131,3.878,22.42,1111122 
DISL,ioos:station:DISL:KATA:1,2015-07-06T12:00:00Z,30.2583,-88.2131,3.929,22.43,1111122 
DISL,ioos:station:DISL:KATA:1,2015-07-06T12:30:00Z,30.2583,-88.2131,3.96,22.42,1111122 
DISL,ioos:station:DISL:KATA:1,2015-07-06T13:00:00Z,30.2583,-88.2131,3.975,22.39,1111122 
DISL,ioos:station:DISL:KATA:1,2015-07-06T13:30:00Z,30.2583,-88.2131,3.974,22.39,1111122 
DISL,ioos:station:DISL:KATA:1,2015-07-06T14:00:00Z,30.2583,-88.2131,3.965,22.39,1111122 